Regional Weather Roundup
Issued by NWS Green Bay, WI

Home | Current Version | Previous Version | Graphics & Text | Print | Product List | Glossary Off
Versions: 1 2 3 4 5 6 7 8 9 10 11 12 13 14 15 16 17 18 19 20 21 22 23 24 25 26 27 28 29 30 31 32 33 34 35 36 37 38 39 40 41 42 43 44 45 46 47 48 49 50

000
ASUS43 KGRB 310711
RWRGRB

NORTH-CENTRAL AND NORTHEAST WISCONSIN REGIONAL WEATHER ROUNDUP
NATIONAL WEATHER SERVICE GREEN BAY WI
200 AM CDT TUE MAY 31 2016

WIZ005-009-010>012-018-019-310800-
NORTH CENTRAL WISCONSIN

CITY           SKY/WX    TMP DP  RH WIND       PRES   REMARKS
IRONWOOD       CLOUDY    55  50  82 E10G18    29.99F
MANITOWISH WTR NOT AVBL
ARBOR VITAE    CLOUDY    59  49  69 E8        30.02S
EAGLE RIVER      N/A     55  46  72 E9        30.03S
LAND O LAKES   CLOUDY    55  48  78 E5        30.06S
RHINELANDER    PTCLDY    60  46  59 E8        30.02S
PHILLIPS       CLOUDY    56  52  85 E3        29.99S
ANTIGO         PTCLDY    58  50  77 E14       30.02R
TOMAHAWK       CLOUDY    52  51  95 CALM      30.01R
MERRILL        MOCLDY    55  55 100 CALM      30.00S
$$

WIZ013-073-310800-
NORTHEAST WISCONSIN

CITY           SKY/WX    TMP DP  RH WIND       PRES   REMARKS
IRON MOUNTAIN  CLOUDY    50  45  83 NE6       30.05S
MARINETTE      MOCLDY    56  48  74 NE10      30.03S
OCONTO         CLOUDY    58  52  78 E6        30.03R
$$

WIZ017-030-035>037-045-310800-
CENTRAL WISCONSIN

CITY           SKY/WX    TMP DP  RH WIND       PRES   REMARKS
MEDFORD        CLOUDY    61  53  74 SE6       29.98S
WAUSAU         PTCLDY    60  55  83 E6        29.98S
MOSINEE        PTCLDY    59  52  77 SE3       30.00S
MARSHFIELD     CLOUDY    64  52  64 S7        29.99R
WISC RAPIDS    CLOUDY    65  51  60 SW9       30.01R
STEVENS POINT  CLOUDY    55  53  92 CALM      29.99S
WAUPACA        CLOUDY    60  59  97 CALM      29.98F
SHAWANO        CLOUDY    62  53  71 E10       30.03R
CLINTONVILLE   PTCLDY    57  54  88 NE9       30.00R
WAUTOMA        MOCLDY   N/A N/A N/A CALM      29.98F
$$

WIZ038-039-048-051-310800-
FOX VALLEY

CITY           SKY/WX    TMP DP  RH WIND       PRES   REMARKS
NWS GREEN BAY  CLOUDY    62  56  80 NE13      30.01R
APPLETON       MOCLDY    63  54  72 CALM      29.98S
OSHKOSH        MOCLDY    63  57  81 S6        29.98F
FOND DU LAC    CLOUDY    63  57  81 CALM      29.99S
$$

WIZ022-050-052-310800-
EAST CENTRAL WISCONSIN

CITY           SKY/WX    TMP DP  RH WIND       PRES   REMARKS
EPHRAIM        FAIR      54  49  82 NE8       30.02S
STURGEON BAY   NOT AVBL
MANITOWOC      CLOUDY    61  55  81 CALM      30.00R
SHEBOYGAN      PTCLDY    58  55  90 W5        30.00S
$$

LMZ563-521-522-541>543-310800-
LAKESHORE

STATION/POSITION TIME  TEMP    WIND        PRES    VSBY  WAVE
                       AIR SEA DIR/SP/G                  HT/PER
                 (UTC) (F)     (DEG/KT/KT) (MB)    (MI)  (FT/S)
SHEBOYGAN LKSHOR 0700   65     230/  6/  7 1015.9F
KEWAUNEE LKSHORE 0600   63     240/  5/  8 1014.7R
NORTHPORT PIER   0600   57     360/ 12/ 15 1016.6R
N MID LAKE BUOY  0650   53 50  360/ 14/ 16 1016.3R         1/ 2
CHAMBERS ISLAND  0600   57     360/ 19/ 24 1016.9R
MENOMINEE LKSHOR 0600   57      20/ 19/ 23 1015.4R
$$




USA.gov is the U.S. government's official web portal to all federal, state and local government web resources and services.